[keps] orb08008.amsat

Ray Hoad r.hoad at att.net
Thu Jan 8 17:22:29 PST 2009


SB KEPS @ AMSAT  $ORB09008.O
Orbital Elements  09008.OSCAR

HR AMSAT ORBITAL ELEMENTS FOR OSCAR SATELLITES
FROM WA5QGD FORT WORTH,TX January 8, 2009
Send Subscribe/unsubscribe to KEPS at 
http://www.amsat.org/mailman/listinfo/keps
BID: ORB09008.O
TO ALL RADIO AMATEURS BT

Satellite: AO-07
Catalog number: 07530
Epoch time:      09006.95961729
Element set:    0373
Inclination:      101.4447 deg
RA of node:       037.4581 deg
Eccentricity:    0.0011897
Arg of perigee:   223.7812 deg
Mean anomaly:     136.2316 deg
Mean motion:   12.53575070 rev/day
Decay rate:       -2.7e-07 rev/day^2
Epoch rev:           56251
Checksum:              295

Satellite: AO-10
Catalog number: 14129
Epoch time:      09005.60011086
Element set:     605
Inclination:      026.0280 deg
RA of node:       177.7445 deg
Eccentricity:    0.5962495
Arg of perigee:   187.3956 deg
Mean anomaly:     156.7605 deg
Mean motion:   02.05870582 rev/day
Decay rate:       -1.9e-07 rev/day^2
Epoch rev:           19227
Checksum:              307

Satellite: UO-11
Catalog number: 14781
Epoch time:      09008.55873766
Element set:     856
Inclination:      098.1304 deg
RA of node:       051.3810 deg
Eccentricity:    0.0009851
Arg of perigee:   128.0010 deg
Mean anomaly:     232.2147 deg
Mean motion:   14.79688934 rev/day
Decay rate:       2.58e-06 rev/day^2
Epoch rev:           33422
Checksum:              303

Satellite: RS-15
Catalog number: 23439
Epoch time:      09006.91589098
Element set:    0187
Inclination:      064.8125 deg
RA of node:       165.6032 deg
Eccentricity:    0.0145950
Arg of perigee:   083.0728 deg
Mean anomaly:     278.6772 deg
Mean motion:   11.27553556 rev/day
Decay rate:       -3.9e-07 rev/day^2
Epoch rev:           57793
Checksum:              342

Satellite: FO-29
Catalog number: 24278
Epoch time:      09008.85811968
Element set:     946
Inclination:      098.5769 deg
RA of node:       264.1059 deg
Eccentricity:    0.0351119
Arg of perigee:   043.1880 deg
Mean anomaly:     319.6234 deg
Mean motion:   13.52941274 rev/day
Decay rate:      -1.02e-06 rev/day^2
Epoch rev:           61220
Checksum:              322

Satellite: SO-33
Catalog number: 25509
Epoch time:      09007.99168992
Element set:     362
Inclination:      031.4325 deg
RA of node:       238.3166 deg
Eccentricity:    0.0354406
Arg of perigee:   017.7762 deg
Mean anomaly:     343.4917 deg
Mean motion:   14.28234870 rev/day
Decay rate:       1.65e-06 rev/day^2
Epoch rev:           53291
Checksum:              318

Satellite: AO-40
Catalog number: 26609
Epoch time:      09007.26037294
Element set:     176
Inclination:      008.4375 deg
RA of node:       039.3531 deg
Eccentricity:    0.7942732
Arg of perigee:   163.0809 deg
Mean anomaly:     260.0040 deg
Mean motion:   01.25583696 rev/day
Decay rate:        4.5e-07 rev/day^2
Epoch rev:            3760
Checksum:              295

Satellite: VO-52
Catalog number: 28650
Epoch time:      09007.37781230
Element set:     123
Inclination:      097.7659 deg
RA of node:       074.1046 deg
Eccentricity:    0.0026966
Arg of perigee:   192.2115 deg
Mean anomaly:     167.8399 deg
Mean motion:   14.81540118 rev/day
Decay rate:       -7.2e-07 rev/day^2
Epoch rev:           19883
Checksum:              322

Satellite: PO-63
Catalog number: 29712
Epoch time:      09008.30966953
Element set:     129
Inclination:      097.8516 deg
RA of node:       068.3832 deg
Eccentricity:    0.0015270
Arg of perigee:   076.1512 deg
Mean anomaly:     284.1397 deg
Mean motion:   14.80403431 rev/day
Decay rate:       5.27e-06 rev/day^2
Epoch rev:           10781
Checksum:              306

/EX
SB KEPS @ AMSAT  $ORB09008.D
Orbital Elements  09008.MICROS

HR AMSAT ORBITAL ELEMENTS FOR THE MICROSATS
FROM WA5QGD FORT WORTH,TX January 8, 2009
Send Subscribe/unsubscribe to KEPS at 
http://www.amsat.org/mailman/listinfo/keps
BID: ORB09008.D
TO ALL RADIO AMATEURS BT

Satellite: AO-16
Catalog number: 20439
Epoch time:      09008.59463749
Element set:     505
Inclination:      098.2578 deg
RA of node:       344.4448 deg
Eccentricity:    0.0010048
Arg of perigee:   288.3877 deg
Mean anomaly:     071.6223 deg
Mean motion:   14.31813080 rev/day
Decay rate:        2.1e-07 rev/day^2
Epoch rev:           99031
Checksum:              311

Satellite: LO-19
Catalog number: 20442
Epoch time:      09006.58172738
Element set:    0428
Inclination:      098.2220 deg
RA of node:       350.3962 deg
Eccentricity:    0.0011048
Arg of perigee:   290.7968 deg
Mean anomaly:     069.2037 deg
Mean motion:   14.32049877 rev/day
Decay rate:        4.9e-07 rev/day^2
Epoch rev:           99018
Checksum:              321

Satellite: AO-27
Catalog number: 22825
Epoch time:      09008.04121627
Element set:     147
Inclination:      098.4154 deg
RA of node:       326.6950 deg
Eccentricity:    0.0008839
Arg of perigee:   022.2426 deg
Mean anomaly:     337.9170 deg
Mean motion:   14.29256406 rev/day
Decay rate:        9.9e-07 rev/day^2
Epoch rev:           79703
Checksum:              312

Satellite: IO-26
Catalog number: 22826
Epoch time:      09008.89946031
Element set:     866
Inclination:      098.4088 deg
RA of node:       328.3428 deg
Eccentricity:    0.0009392
Arg of perigee:   015.9583 deg
Mean anomaly:     344.1903 deg
Mean motion:   14.29506541 rev/day
Decay rate:        1.3e-07 rev/day^2
Epoch rev:           79725
Checksum:              332

Satellite: GO-32
Catalog number: 25397
Epoch time:      09006.78950788
Element set:    0791
Inclination:      098.3431 deg
RA of node:       037.6538 deg
Eccentricity:    0.0001605
Arg of perigee:   041.7241 deg
Mean anomaly:     318.4044 deg
Mean motion:   14.23152321 rev/day
Decay rate:      -1.94e-06 rev/day^2
Epoch rev:           54517
Checksum:              301

Satellite: NO-44
Catalog number: 26931
Epoch time:      09008.62914580
Element set:      69
Inclination:      067.0509 deg
RA of node:       115.4035 deg
Eccentricity:    0.0005874
Arg of perigee:   255.9198 deg
Mean anomaly:     104.1206 deg
Mean motion:   14.29544173 rev/day
Decay rate:      -1.05e-06 rev/day^2
Epoch rev:           37977
Checksum:              309

Satellite: SO-50
Catalog number: 27607
Epoch time:      09008.53816471
Element set:     785
Inclination:      064.5570 deg
RA of node:       149.9676 deg
Eccentricity:    0.0081596
Arg of perigee:   239.5538 deg
Mean anomaly:     119.7430 deg
Mean motion:   14.71406649 rev/day
Decay rate:       -6.8e-07 rev/day^2
Epoch rev:           32518
Checksum:              344

Satellite: CO-55
Catalog number: 27844
Epoch time:      09008.53625662
Element set:     483
Inclination:      098.7157 deg
RA of node:       019.9452 deg
Eccentricity:    0.0009100
Arg of perigee:   242.9499 deg
Mean anomaly:     117.0749 deg
Mean motion:   14.20616255 rev/day
Decay rate:        3.2e-07 rev/day^2
Epoch rev:           28659
Checksum:              325

Satellite: CO-57
Catalog number: 27848
Epoch time:      09006.94199549
Element set:    0430
Inclination:      098.7157 deg
RA of node:       017.4399 deg
Eccentricity:    0.0009147
Arg of perigee:   253.3283 deg
Mean anomaly:     106.6893 deg
Mean motion:   14.20421358 rev/day
Decay rate:        1.6e-07 rev/day^2
Epoch rev:           28633
Checksum:              333

Satellite: AO-51
Catalog number: 28375
Epoch time:      09008.01082332
Element set:     286
Inclination:      098.0570 deg
RA of node:       026.9131 deg
Eccentricity:    0.0083003
Arg of perigee:   251.7393 deg
Mean anomaly:     107.4750 deg
Mean motion:   14.40629701 rev/day
Decay rate:      .00000000 rev/day^2
Epoch rev:           23789
Checksum:              268

Satellite: CO-56
Catalog number: 28941
Epoch time:      09008.10141860
Element set:     705
Inclination:      098.1234 deg
RA of node:       154.8814 deg
Eccentricity:    0.0127914
Arg of perigee:   011.0507 deg
Mean anomaly:     349.3462 deg
Mean motion:   15.69003479 rev/day
Decay rate:     2.6651e-04 rev/day^2
Epoch rev:           16203
Checksum:              296

Satellite: CP3
Catalog number: 31128
Epoch time:      09006.83332310
Element set:    0525
Inclination:      098.0155 deg
RA of node:       067.3746 deg
Eccentricity:    0.0103899
Arg of perigee:   065.4384 deg
Mean anomaly:     295.7618 deg
Mean motion:   14.52007682 rev/day
Decay rate:       -4.6e-07 rev/day^2
Epoch rev:           09148
Checksum:              305

Satellite: CP4
Catalog number: 31132
Epoch time:      09006.90368134
Element set:    0512
Inclination:      098.0199 deg
RA of node:       070.6265 deg
Eccentricity:    0.0086738
Arg of perigee:   056.1524 deg
Mean anomaly:     304.7884 deg
Mean motion:   14.55173256 rev/day
Decay rate:        3.0e-08 rev/day^2
Epoch rev:           09157
Checksum:              297

Satellite: CO-65
Catalog number: 32785
Epoch time:      09006.09180604
Element set:    0258
Inclination:      097.9692 deg
RA of node:       071.2234 deg
Eccentricity:    0.0014627
Arg of perigee:   194.2315 deg
Mean anomaly:     165.8491 deg
Mean motion:   14.81435706 rev/day
Decay rate:       3.05e-06 rev/day^2
Epoch rev:           03744
Checksum:              309

/EX
SB KEPS @ AMSAT  $ORB09008.W
Orbital Elements  09008.WEATHER

HR AMSAT ORBITAL ELEMENTS FOR WEATHER SATELLITES
FROM WA5QGD FORT WORTH,TX January 8, 2009
Send Subscribe/unsubscribe to KEPS at 
http://www.amsat.org/mailman/listinfo/keps
BID: ORB09008.W
TO ALL RADIO AMATEURS BT

Satellite: NOAA-10
Catalog number: 16969
Epoch time:      09006.79137733
Element set:    0447
Inclination:      098.7087 deg
RA of node:       034.1934 deg
Eccentricity:    0.0011718
Arg of perigee:   310.4848 deg
Mean anomaly:     049.5283 deg
Mean motion:   14.27376831 rev/day
Decay rate:       -5.5e-07 rev/day^2
Epoch rev:           16048
Checksum:              325

